Showing default

IRIDIUM 123, 42804

Orbit data source: Space-Track

IRIDIUM 123, 42804 is a payload satellite owned by Iridium (US) in LEO that was launched on Sun, 25 Jun 2017 UTC via an FALCON 9 launch vehicle from the Air Force Western Test Range (AFWTR). Payload-class satellites include a variety of spacecraft equipped with specific instruments for various scientific and technological missions. These include communications satellites like Starlink; space stations such as the ISS; scientific satellites like the Hubble; Earth observation satellites from companies like Planet Labs, Umbra, and HawkEye 360; GPS; miniature CubeSats for education and research; and military/defense satellites.

Loading next visibility...
Identifier
42804, 2017-039B
Orbit
LEO
Country
Flag of USUS
Related business
Manufacturer
OATK SSG Gilbert
Mission
Operational Commercial Communications
Bus & Motor
ELITEBUS, Unknown motor
Mass
860 kg wet, 700 kg dry
Launch date (UTC)
2017-06-25 (9 years ago)
Launch vehicle
FALCON 9
Launch site
Air Force Western Test Range (AFWTR)
Object type
Payload
Rocket body
Debris
Shape & HBR
Trap Box + 2 Pan, 4.8 m
Radar Cross Section
10.154 m², Large (>1 m²)

Expand to show TLE details & history
Last TLE update: 7 hours ago

TLE from 7 hours ago
0 IRIDIUM 123
1 42804U 17039B   26266.58568323 -.00000009  00000-0 -10340-4 0  9993
2 42804  86.3964 312.5273 0002062  90.4084 269.7348 14.34217144484055
Epoch: 2026-09-23T14:03Z
TLE epoch observation values (Epoch: 2026-09-23T14:03:23.031Z)
Latitude
-0.00001°
Longitude
99.24665°
Altitude
780.727 km
Speed
7.463 km/s
True Right ascension
20h 50m 06s
True Declination
0° 00' 00"
Sunlit
Object was in full shadow at epoch
Visualization orbit readout
Latitude
Unknown
Longitude
Unknown
Altitude
Unknown
Speed
Unknown
Apparent Right ascension
Unknown
Apparent Declination
Unknown
Sunlit
N/A
Visualization observer readout
Local Sidereal Time
14:33:44
Azimuth
Unknown
Elevation
Unknown
Doppler factor
Unknown
Orbital elements
Apogee altitude
776.109 km
Perigee altitude
773.159 km
Semi-major axis
7,152.771 km
Eccentricity
0.00021
Inclination
86.3964°
RAAN
312.5273°
Arg. of periapsis
90.4084°
True anomaly
269.71117°
Mean anomaly
269.7348°
Eccentric anomaly
269.72299°
Mean motion
3.58783 °/min
Orbital period
100.34 mins
BSTAR
-0.00001034
Loading maneuver chart data...
Computing Atmospheric mass density...
Loading historical data...
Loading historical data...
Loading historical data...
Loading historical data...
Loading historical data...
Loading historical data...
Loading historical data...

Documentation

Showing up to 5 results
|